CW6981 Weather Reports


Display with metric or nautical units.
time (UTC)temp
F
wind
direction
speed
MPH
gust
MPH
rain 1hr
in
rain 24hr
in
rain mn
in
humidity
%
barometer
mb
20260906221040 90 78 1.0 5.0 0.00 0.00 0.00 35 1030.5
20260906220551 90 326 1.0 4.0 0.00 0.00 0.00 36 1030.5
20260906220039 90 107 1.0 6.0 0.00 0.00 0.00 36 1030.5
20260906215530 90 49 2.0 6.0 0.00 0.00 0.00 36 1030.6
20260906215042 89 68 1.0 4.0 0.00 0.00 0.00 37 1030.6
20260906214532 89 73 1.0 4.0 0.00 0.00 0.00 35 1030.7
20260906214039 89 86 0.0 4.0 0.00 0.00 0.00 36 1030.8
20260906213530 89 106 2.0 4.0 0.00 0.00 0.00 36 1030.9
20260906213100 89 79 2.0 5.0 0.00 0.00 0.00 37 1031.0
20260906212550 89 55 1.0 5.0 0.00 0.00 0.00 36 1031.1
20260906212043 89 79 0.0 4.0 0.00 0.00 0.00 36 1031.1
20260906211533 88 80 1.0 5.0 0.00 0.00 0.00 37 1031.3
20260906211040 88 52 2.0 5.0 0.00 0.00 0.00 37 1031.3
20260906210552 88 272 1.0 4.0 0.00 0.00 0.00 37 1031.4
20260906210041 88 60 1.0 4.0 0.00 0.00 0.00 38 1031.6
20260906205523 88 58 1.0 5.0 0.00 0.00 0.00 37 1031.6
20260906205036 88 48 1.0 5.0 0.00 0.00 0.00 39 1031.7
20260906204529 87 65 2.0 6.0 0.00 0.00 0.00 37 1031.8
20260906204039 87 58 3.0 6.0 0.00 0.00 0.00 38 1032.0
20260906203529 87 60 0.0 4.0 0.00 0.00 0.00 37 1031.9
20260906203039 87 243 1.0 4.0 0.00 0.00 0.00 39 1032.0
20260906202529 87 144 0.0 6.0 0.00 0.00 0.00 40 1032.0
20260906202041 86 73 1.0 6.0 0.00 0.00 0.00 39 1032.0
20260906201530 86 79 3.0 5.0 0.00 0.00 0.00 40 1032.1
20260906201040 86 303 0.0 3.0 0.00 0.00 0.00 41 1032.1
20260906200532 85 109 2.0 3.0 0.00 0.00 0.00 41 1032.2
20260906200104 85 91 1.0 2.0 0.00 0.00 0.00 41 1032.2
20260906195553 85 100 1.0 7.0 0.00 0.00 0.00 40 1032.5
20260906195040 85 75 2.0 7.0 0.00 0.00 0.00 41 1032.5
20260906194547 84 53 0.0 4.0 0.00 0.00 0.00 41 1032.6
20260906194034 84 58 0.0 5.0 0.00 0.00 0.00 42 1032.7
20260906193606 84 58 3.0 5.0 0.00 0.00 0.00 41 1032.8
20260906193053 84 79 1.0 4.0 0.00 0.00 0.00 42 1032.9
20260906192534 84 268 1.0 5.0 0.00 0.00 0.00 43 1032.9
20260906192047 83 64 2.0 5.0 0.00 0.00 0.00 44 1033.0
20260906191526 83 270 1.0 3.0 0.00 0.00 0.00 44 1033.0
20260906191040 83 107 1.0 2.0 0.00 0.00 0.00 44 1033.1
20260906190612 83 88 1.0 5.0 0.00 0.00 0.00 44 1033.2
20260906190032 82 83 1.0 5.0 0.00 0.00 0.00 44 1033.3
20260906185543 82 38 1.0 3.0 0.00 0.00 0.00 45 1033.4
20260906185054 82 51 1.0 4.0 0.00 0.00 0.00 46 1033.5
20260906184535 82 91 0.0 4.0 0.00 0.00 0.00 45 1033.6
20260906184045 81 110 1.0 3.0 0.00 0.00 0.00 46 1033.6
20260906183538 81 65 1.0 3.0 0.00 0.00 0.00 45 1033.8
20260906183046 81 62 2.0 4.0 0.00 0.00 0.00 46 1033.8
20260906182528 81 69 1.0 4.0 0.00 0.00 0.00 47 1033.9
20260906182102 80 57 1.0 4.0 0.00 0.00 0.00 48 1034.2
20260906181534 80 60 2.0 4.0 0.00 0.00 0.00 49 1034.2
20260906181044 80 283 1.0 3.0 0.00 0.00 0.00 49 1034.3
20260906180538 79 67 1.0 4.0 0.00 0.00 0.00 51 1034.3
20260906180045 79 83 0.0 4.0 0.00 0.00 0.00 51 1034.4
20260906175537 79 91 2.0 4.0 0.00 0.00 0.00 53 1034.5
20260906175028 78 73 1.0 4.0 0.00 0.00 0.00 54 1034.6
20260906174537 78 59 1.0 3.0 0.00 0.00 0.00 55 1034.7
20260906174028 78 59 0.0 3.0 0.00 0.00 0.00 54 1034.8
20260906173541 78 59 0.0 4.0 0.00 0.00 0.00 54 1034.9
20260906173032 77 251 0.0 4.0 0.00 0.00 0.00 55 1035.0
20260906172544 77 76 0.0 2.0 0.00 0.00 0.00 55 1035.2
20260906172037 77 266 0.0 2.0 0.00 0.00 0.00 54 1035.3
20260906171528 77 11 1.0 3.0 0.00 0.00 0.00 55 1035.5
20260906171038 77 11 1.0 3.0 0.00 0.00 0.00 53 1035.6
20260906170531 77 356 0.0 2.0 0.00 0.00 0.00 53 1035.6
20260906170043 77 356 0.0 2.0 0.00 0.00 0.00 53 1035.7
20260906165535 77 356 1.0 2.0 0.00 0.00 0.00 54 1035.7
20260906165031 78 263 1.0 3.0 0.00 0.00 0.00 54 1035.8
20260906164535 78 50 1.0 3.0 0.00 0.00 0.00 53 1035.8
20260906164026 78 50 1.0 3.0 0.00 0.00 0.00 54 1035.8
20260906163541 78 50 1.0 3.0 0.00 0.00 0.00 53 1035.8
20260906163050 78 50 0.0 2.0 0.00 0.00 0.00 52 1035.9
20260906162541 78 41 0.0 2.0 0.00 0.00 0.00 54 1036.0
20260906162054 77 44 0.0 2.0 0.00 0.00 0.00 55 1035.0
20260906161528 76 270 0.0 3.0 0.00 0.00 0.00 57 1035.0
20260906161038 76 266 1.0 3.0 0.00 0.00 0.00 58 1035.1
20260906160533 74 69 0.0 2.0 0.00 0.00 0.00 59 1035.1
20260906160043 74 69 1.0 2.0 0.00 0.00 0.00 62 1035.1
20260906155537 73 65 0.0 1.0 0.00 0.00 0.00 63 1035.1
20260906155108 72 79 0.0 2.0 0.00 0.00 0.00 64 1035.1
20260906154556 71 69 0.0 4.0 0.00 0.00 0.00 66 1035.3
20260906154045 71 53 2.0 4.0 0.00 0.00 0.00 66 1035.2
20260906153552 70 84 0.0 2.0 0.00 0.00 0.00 66 1035.1
20260906153033 70 85 0.0 2.0 0.00 0.00 0.00 66 1035.2
20260906152549 69 85 0.0 2.0 0.00 0.00 0.00 66 1035.3
20260906152059 69 227 0.0 1.0 0.00 0.00 0.00 67 1035.2
20260906151606 68 229 0.0 1.0 0.00 0.00 0.00 67 1035.3
20260906151057 68 229 0.0 1.0 0.00 0.00 0.00 66 1035.4
20260906150528 68 229 0.0 1.0 0.00 0.00 0.00 67 1035.5
20260906150036 67 229 0.0 1.0 0.00 0.00 0.00 68 1035.5
20260906145528 67 229 0.0 1.0 0.00 0.00 0.00 69 1035.6
20260906145040 66 229 0.0 1.0 0.00 0.00 0.00 71 1035.5
20260906144552 66 229 0.0 1.0 0.00 0.00 0.00 72 1035.6
20260906144033 65 229 0.0 1.0 0.00 0.00 0.00 73 1035.6
20260906143524 65 229 0.0 0.0 0.00 0.00 0.00 74 1035.7
20260906143038 65 229 0.0 1.0 0.00 0.00 0.00 75 1035.7
20260906142527 64 229 0.0 1.0 0.00 0.00 0.00 75 1035.7
20260906142037 64 229 0.0 2.0 0.00 0.00 0.00 75 1035.7
20260906141545 63 229 0.0 2.0 0.00 0.00 0.00 77 1035.8
20260906141036 63 225 0.0 0.0 0.00 0.00 0.00 78 1035.7
20260906140532 63 225 0.0 0.0 0.00 0.00 0.00 77 1035.8
20260906140041 63 225 0.0 0.0 0.00 0.00 0.00 77 1035.8
20260906135531 62 225 0.0 0.0 0.00 0.00 0.00 78 1035.8
20260906135043 62 225 0.0 0.0 0.00 0.00 0.00 78 1035.8
20260906134552 62 225 0.0 0.0 0.00 0.00 0.00 77 1035.9
20260906134042 62 225 0.0 0.0 0.00 0.00 0.00 77 1035.9
20260906133534 62 225 0.0 0.0 0.00 0.00 0.00 77 1035.8
20260906133044 62 225 0.0 0.0 0.00 0.00 0.00 77 1035.8
20260906132535 62 225 0.0 0.0 0.00 0.00 0.00 76 1035.7
20260906132051 62 225 0.0 0.0 0.00 0.00 0.00 76 1035.5
20260906131532 62 225 0.0 0.0 0.00 0.00 0.00 76 1035.5
20260906131044 62 225 0.0 0.0 0.00 0.00 0.00 76 1035.5
20260906130537 63 225 0.0 0.0 0.00 0.00 0.00 76 1035.4
20260906130027 63 225 0.0 0.0 0.00 0.00 0.00 75 1035.3
20260906125538 63 225 0.0 0.0 0.00 0.00 0.00 75 1035.3
20260906125033 63 225 0.0 0.0 0.00 0.00 0.00 74 1035.2
20260906124523 63 225 0.0 0.0 0.00 0.00 0.00 74 1035.1
20260906124057 64 225 0.0 0.0 0.00 0.00 0.00 74 1035.1
20260906123529 64 225 0.0 0.0 0.00 0.00 0.00 74 1035.1
20260906123058 64 225 0.0 0.0 0.00 0.00 0.00 73 1035.2
20260906122532 64 225 0.0 0.0 0.00 0.00 0.00 73 1035.1
20260906122104 65 225 0.0 0.0 0.00 0.00 0.00 73 1035.3
20260906121534 65 225 0.0 0.0 0.00 0.00 0.00 72 1035.3
20260906121025 65 225 0.0 0.0 0.00 0.00 0.00 71 1035.2
20260906120533 65 225 0.0 0.0 0.00 0.00 0.00 71 1035.2
20260906120025 65 225 0.0 0.0 0.00 0.00 0.00 71 1035.3
20260906115538 65 225 0.0 0.0 0.00 0.00 0.00 70 1035.3
20260906115036 65 225 0.0 0.0 0.00 0.00 0.00 70 1035.2
20260906114525 65 225 0.0 0.0 0.00 0.00 0.00 69 1035.2
20260906114057 65 225 0.0 0.0 0.00 0.00 0.00 69 1035.3
20260906113533 65 225 0.0 0.0 0.00 0.00 0.00 69 1035.3
20260906113043 65 225 0.0 0.0 0.00 0.00 0.00 68 1035.3
20260906112536 65 225 0.0 1.0 0.00 0.00 0.00 68 1035.2
20260906112027 65 225 0.0 1.0 0.00 0.00 0.00 68 1035.2
20260906111538 65 225 0.0 1.0 0.00 0.00 0.00 67 1035.1
20260906111029 65 225 0.0 1.0 0.00 0.00 0.00 67 1034.9
20260906110543 65 225 0.0 1.0 0.00 0.00 0.00 66 1034.9
20260906110052 65 225 0.0 1.0 0.00 0.00 0.00 66 1034.9
20260906105534 65 225 0.0 1.0 0.00 0.00 0.00 65 1034.9
20260906105048 65 225 0.0 1.0 0.00 0.00 0.00 66 1034.7
20260906104538 66 225 0.0 1.0 0.00 0.00 0.00 66 1034.5
20260906104054 66 129 0.0 0.0 0.00 0.00 0.00 66 1034.8
20260906103544 66 129 0.0 1.0 0.00 0.00 0.00 64 1034.8
20260906103032 66 129 0.0 1.0 0.00 0.00 0.00 64 1034.8
20260906102543 66 129 0.0 1.0 0.00 0.00 0.00 64 1034.7
20260906102036 66 129 0.0 1.0 0.00 0.00 0.00 63 1034.5
20260906101526 66 129 0.0 1.0 0.00 0.00 0.00 62 1034.6
20260906101037 66 129 0.0 1.0 0.00 0.00 0.00 62 1034.3
20260906100532 66 129 0.0 0.0 0.00 0.00 0.00 62 1034.4
20260906100040 66 129 0.0 0.0 0.00 0.00 0.00 63 1034.5
20260906095551 66 129 0.0 1.0 0.00 0.00 0.00 64 1034.5
20260906095034 66 129 0.0 1.0 0.00 0.00 0.00 63 1034.6
20260906094525 66 129 0.0 1.0 0.00 0.00 0.00 62 1034.6
20260906094038 67 129 0.0 0.0 0.00 0.00 0.00 62 1034.7
20260906093533 67 129 0.0 0.0 0.00 0.00 0.00 62 1034.7
20260906093042 67 129 0.0 0.0 0.00 0.00 0.00 62 1034.6
20260906092533 68 129 0.0 0.0 0.00 0.00 0.00 62 1034.7
20260906092104 68 129 0.0 1.0 0.00 0.00 0.00 62 1034.6
20260906091532 68 129 0.0 1.0 0.00 0.00 0.00 61 1034.6
20260906091043 69 129 0.0 0.0 0.00 0.00 0.00 60 1034.4
20260906090535 69 129 0.0 0.0 0.00 0.00 0.00 61 1034.4
20260906090045 69 129 0.0 0.0 0.00 0.00 0.00 60 1034.4
20260906085530 69 129 0.0 0.0 0.00 0.00 0.00 58 1034.3
20260906085043 70 129 0.0 0.0 0.00 0.00 0.00 58 1034.4
20260906084532 70 129 0.0 0.0 0.00 0.00 0.00 58 1034.3
20260906084043 70 129 0.0 0.0 0.00 0.00 0.00 57 1034.2
20260906083535 71 129 0.0 0.0 0.00 0.00 0.00 57 1034.2
20260906083059 71 129 0.0 0.0 0.00 0.00 0.00 57 1034.1
20260906082529 71 129 0.0 0.0 0.00 0.00 0.00 56 1034.2
20260906082043 72 129 0.0 0.0 0.00 0.00 0.00 55 1034.2
20260906081551 72 129 0.0 0.0 0.00 0.00 0.00 55 1034.3
20260906081042 72 129 0.0 0.0 0.00 0.00 0.00 52 1034.2
20260906080535 72 129 0.0 0.0 0.00 0.00 0.00 52 1034.2
20260906080024 72 129 0.0 1.0 0.00 0.00 0.00 52 1034.3
20260906075536 72 129 0.0 1.0 0.00 0.00 0.00 53 1034.3
20260906075050 72 129 0.0 2.0 0.00 0.00 0.00 50 1034.3
20260906074559 72 33 1.0 2.0 0.00 0.00 0.00 50 1034.2
20260906074032 72 356 0.0 1.0 0.00 0.00 0.00 51 1034.2
20260906073525 72 356 0.0 1.0 0.00 0.00 0.00 51 1034.2
20260906073059 72 356 0.0 1.0 0.00 0.00 0.00 51 1034.2
20260906072552 72 339 0.0 1.0 0.00 0.00 0.00 51 1034.1
20260906072048 72 296 0.0 2.0 0.00 0.00 0.00 51 1034.1
20260906071535 72 281 0.0 2.0 0.00 0.00 0.00 50 1034.1
20260906071027 72 251 0.0 1.0 0.00 0.00 0.00 51 1034.1
20260906070600 73 251 0.0 1.0 0.00 0.00 0.00 51 1034.1
20260906070051 73 251 0.0 1.0 0.00 0.00 0.00 51 1034.2
20260906065543 73 251 0.0 1.0 0.00 0.00 0.00 51 1034.2
20260906065057 73 257 0.0 0.0 0.00 0.00 0.00 52 1034.1
20260906064524 73 257 0.0 0.0 0.00 0.00 0.00 51 1034.0
20260906064036 73 257 0.0 1.0 0.00 0.00 0.00 52 1034.1
20260906063529 74 257 0.0 1.0 0.00 0.00 0.00 52 1034.3
20260906063040 74 257 0.0 0.0 0.00 0.00 0.00 52 1034.5
20260906062535 74 257 0.0 1.0 0.00 0.00 0.00 52 1034.6
20260906062033 74 257 0.0 1.0 0.00 0.00 0.00 51 1034.6
20260906061547 74 256 0.0 1.0 0.00 0.00 0.00 50 1034.6
20260906061029 75 256 0.0 1.0 0.00 0.00 0.00 50 1034.7
20260906060542 75 256 0.0 1.0 0.00 0.00 0.00 49 1034.8
20260906060052 75 257 0.0 1.0 0.00 0.00 0.00 48 1034.8
20260906055536 75 254 0.0 0.0 0.00 0.00 0.00 47 1035.0
20260906055029 75 254 0.0 1.0 0.00 0.00 0.00 47 1034.9
20260906054542 75 254 0.0 2.0 0.00 0.00 0.00 47 1034.9
20260906054034 75 231 0.0 2.0 0.00 0.00 0.00 47 1034.9
20260906053601 76 191 0.0 2.0 0.00 0.00 0.00 47 1035.0
20260906053052 76 272 0.0 3.0 0.00 0.00 0.00 47 1035.0
20260906052535 76 331 1.0 3.0 0.00 0.00 0.00 46 1034.1
20260906052029 76 31 0.0 1.0 0.00 0.00 0.00 46 1034.0
20260906051540 76 31 0.0 1.0 0.00 0.00 0.00 46 1034.0
20260906051053 76 50 0.0 2.0 0.00 0.00 0.00 46 1034.1
20260906050525 76 262 0.0 3.0 0.00 0.00 0.00 46 1034.3
20260906050039 75 265 1.0 3.0 0.00 0.00 0.00 45 1034.5
20260906045531 75 96 0.0 1.0 0.00 0.00 0.00 45 1034.4
20260906045041 75 87 0.0 1.0 0.00 0.00 0.00 45 1034.4
20260906044533 74 88 0.0 1.0 0.00 0.00 0.00 45 1034.3
20260906044045 74 88 0.0 1.0 0.00 0.00 0.00 47 1034.6
20260906043537 74 88 0.0 1.0 0.00 0.00 0.00 45 1034.7
20260906043026 74 88 0.0 0.0 0.00 0.00 0.00 44 1035.6
20260906042534 74 88 0.0 1.0 0.00 0.00 0.00 45 1035.5
20260906042027 74 88 0.0 2.0 0.00 0.00 0.00 45 1035.3
20260906041537 74 88 0.0 2.0 0.00 0.00 0.00 45 1035.1
20260906041027 73 88 1.0 2.0 0.00 0.00 0.00 46 1034.9
20260906040543 74 214 0.0 1.0 0.00 0.00 0.00 48 1034.5
20260906040032 74 214 0.0 0.0 0.00 0.00 0.00 49 1034.2
20260906035541 74 214 0.0 0.0 0.00 0.00 0.00 49 1034.0
20260906035032 75 214 0.0 0.0 0.00 0.00 0.00 48 1033.9
20260906034523 75 214 0.0 0.0 0.00 0.00 0.00 47 1033.8
20260906034038 75 214 0.0 0.0 0.00 0.00 0.00 45 1033.7
20260906033531 76 214 0.0 0.0 0.00 0.00 0.00 45 1033.6
20260906033036 76 214 0.0 0.0 0.00 0.00 0.00 44 1033.5
20260906032526 77 214 0.0 0.0 0.00 0.00 0.00 44 1033.4
20260906032035 77 214 0.0 0.0 0.00 0.00 0.00 43 1033.4
20260906031524 77 214 0.0 0.0 0.00 0.00 0.00 42 1033.4
20260906031038 78 214 0.0 0.0 0.00 0.00 0.00 43 1033.3
20260906030531 78 214 0.0 0.0 0.00 0.00 0.00 41 1033.2
20260906030041 79 214 0.0 0.0 0.00 0.00 0.00 42 1033.1
20260906025531 80 214 0.0 0.0 0.00 0.00 0.00 41 1033.0
20260906025029 80 214 0.0 0.0 0.00 0.00 0.00 39 1033.0
20260906024540 80 214 0.0 0.0 0.00 0.00 0.00 38 1032.9
20260906024030 81 214 0.0 1.0 0.00 0.00 0.00 39 1032.8
20260906023602 81 214 0.0 1.0 0.00 0.00 0.00 39 1032.8
20260906023032 82 214 0.0 0.0 0.00 0.00 0.00 38 1032.7
20260906022543 82 214 0.0 0.0 0.00 0.00 0.00 35 1032.7
20260906022036 82 214 0.0 1.0 0.00 0.00 0.00 33 1032.6
20260906021526 82 214 0.0 1.0 0.00 0.00 0.00 33 1032.5
20260906021040 83 214 0.0 0.0 0.00 0.00 0.00 32 1032.5
20260906020538 83 214 0.0 1.0 0.00 0.00 0.00 32 1032.5
20260906020027 83 214 0.0 1.0 0.00 0.00 0.00 32 1032.4
20260906015559 83 214 0.0 1.0 0.00 0.00 0.00 32 1032.3
20260906015031 83 270 0.0 1.0 0.00 0.00 0.00 32 1032.3
20260906014523 83 270 0.0 3.0 0.00 0.00 0.00 31 1032.2
20260906014037 84 270 1.0 3.0 0.00 0.00 0.00 31 1032.2
20260906013530 84 259 1.0 3.0 0.00 0.00 0.00 32 1032.1
20260906013038 84 261 0.0 3.0 0.00 0.00 0.00 33 1032.0
20260906012550 85 261 0.0 3.0 0.00 0.00 0.00 33 1032.0
20260906012026 85 246 0.0 1.0 0.00 0.00 0.00 31 1032.0
20260906011558 86 274 0.0 3.0 0.00 0.00 0.00 31 1032.0
20260906011048 86 276 1.0 3.0 0.00 0.00 0.00 30 1031.9
20260906010538 87 154 0.0 0.0 0.00 0.00 0.00 32 1031.9
20260906010030 87 154 0.0 0.0 0.00 0.00 0.00 29 1031.9
20260906005541 87 154 0.0 0.0 0.00 0.00 0.00 29 1031.8
20260906005034 88 154 0.0 0.0 0.00 0.00 0.00 29 1031.9
20260906004525 88 154 0.0 0.0 0.00 0.00 0.00 29 1032.0
20260906004035 88 154 0.0 0.0 0.00 0.00 0.00 29 1032.0
20260906003527 89 154 0.0 0.0 0.00 0.00 0.00 28 1032.0
20260906003039 89 154 0.0 0.0 0.00 0.00 0.00 28 1032.1
20260906002532 89 154 0.0 0.0 0.00 0.00 0.00 28 1031.9
20260906002107 90 154 0.0 0.0 0.00 0.00 0.00 28 1031.9
20260906001536 90 154 0.0 0.0 0.00 0.00 0.00 29 1031.9
20260906001029 90 154 0.0 0.0 0.00 0.00 0.00 27 1031.9
20260906000539 90 154 0.0 1.0 0.00 0.00 0.00 27 1031.9
20260906000027 90 154 0.0 1.0 0.00 0.00 0.00 25 1031.9
20260905235541 90 155 0.0 0.0 0.00 0.00 0.00 26 1031.9
20260905235033 90 155 0.0 1.0 0.00 0.00 0.00 26 1031.8
20260905234543 90 155 0.0 1.0 0.00 0.00 0.00 26 1031.9
20260905234037 90 155 0.0 1.0 0.00 0.00 0.00 25 1031.8
20260905233530 90 141 0.0 2.0 0.00 0.00 0.00 25 1031.7
20260905233040 90 141 0.0 2.0 0.00 0.00 0.00 25 1031.7
20260905232532 90 117 0.0 2.0 0.00 0.00 0.00 25 1031.7
20260905232044 90 28 0.0 1.0 0.00 0.00 0.00 26 1031.7
20260905231534 90 32 1.0 1.0 0.00 0.00 0.00 24 1031.7
20260905231028 90 23 0.0 1.0 0.00 0.00 0.00 26 1031.7
20260905230526 90 28 0.0 1.0 0.00 0.00 0.00 26 1031.8
20260905230042 90 29 0.0 1.0 0.00 0.00 0.00 26 1031.8
20260905225533 90 39 0.0 1.0 0.00 0.00 0.00 26 1031.7
20260905225026 90 39 0.0 2.0 0.00 0.00 0.00 27 1031.7
20260905224558 90 73 0.0 2.0 0.00 0.00 0.00 27 1031.8
20260905224046 90 71 1.0 2.0 0.00 0.00 0.00 26 1031.7
20260905223535 90 101 0.0 2.0 0.00 0.00 0.00 26 1031.8
20260905223043 90 102 0.0 3.0 0.00 0.00 0.00 25 1031.8
20260905222534 90 270 1.0 3.0 0.00 0.00 0.00 26 1031.8
20260905222102 89 285 1.0 3.0 0.00 0.00 0.00 26 1031.9
20260905221536 89 356 1.0 2.0 0.00 0.00 0.00 27 1032.0